Time,TemperatureF,DewpointF,PressureIn,WindDirection,WindDirectionDegrees,WindSpeedMPH,WindSpeedGustMPH,Humidity,HourlyPrecipIn,Conditions,Clouds,dailyrainin,SoftwareType,DateUTC
2013-04-20 00:00:00,63.0,62.1,29.73,West,271,2.0,14.0,97,0.00,,,0.72,Wunderground v.1.15,2013-04-20 04:00:00,
2013-04-20 00:05:00,62.8,61.9,29.73,SSW,192,2.0,14.0,97,0.00,,,0.72,Wunderground v.1.15,2013-04-20 04:05:00,
2013-04-20 00:10:00,62.7,61.5,29.73,WSW,238,2.0,2.0,96,0.00,,,0.72,Wunderground v.1.15,2013-04-20 04:10:00,
2013-04-20 00:15:00,62.6,61.4,29.75,WNW,287,2.0,6.0,96,0.00,,,0.72,Wunderground v.1.15,2013-04-20 04:15:00,
2013-04-20 00:20:00,62.6,61.7,29.75,WSW,238,1.0,6.0,97,0.00,,,0.72,Wunderground v.1.15,2013-04-20 04:20:00,
2013-04-20 00:25:00,61.8,59.5,29.75,West,259,3.0,6.0,92,0.00,,,0.72,Wunderground v.1.15,2013-04-20 04:25:00,
2013-04-20 00:35:00,60.4,57.5,29.77,WSW,252,3.0,6.0,90,0.00,,,0.72,Wunderground v.1.15,2013-04-20 04:35:00,
2013-04-20 00:40:00,59.9,56.6,29.77,WSW,255,2.0,6.0,89,0.00,,,0.72,Wunderground v.1.15,2013-04-20 04:40:00,
2013-04-20 00:45:00,59.6,56.7,29.79,NW,310,2.0,6.0,90,0.00,,,0.72,Wunderground v.1.15,2013-04-20 04:45:00,
2013-04-20 00:55:00,58.8,55.9,29.79,NW,304,1.0,6.0,90,0.00,,,0.72,Wunderground v.1.15,2013-04-20 04:55:00,
2013-04-20 01:00:00,58.5,55.9,29.79,NW,314,1.0,6.0,91,0.00,,,0.73,Wunderground v.1.15,2013-04-20 05:00:00,
2013-04-20 01:05:00,58.1,55.5,29.79,SSW,204,1.0,6.0,91,0.00,,,0.00,Wunderground v.1.15,2013-04-20 05:05:00,
2013-04-20 01:10:00,57.9,55.9,29.79,SSW,203,1.0,6.0,93,0.00,,,0.00,Wunderground v.1.15,2013-04-20 05:10:00,
2013-04-20 01:15:00,57.6,55.6,29.80,WSW,255,1.0,6.0,93,0.00,,,0.00,Wunderground v.1.15,2013-04-20 05:15:00,
2013-04-20 01:25:00,57.1,54.8,29.80,WNW,298,2.0,6.0,92,0.00,,,0.00,Wunderground v.1.15,2013-04-20 05:25:00,
2013-04-20 01:30:00,56.8,54.2,29.79,West,281,1.0,1.0,91,0.00,,,0.00,Wunderground v.1.15,2013-04-20 05:30:00,
2013-04-20 01:35:00,56.6,54.3,29.79,West,281,1.0,6.0,92,0.00,,,0.00,Wunderground v.1.15,2013-04-20 05:35:00,
2013-04-20 01:40:00,56.4,54.1,29.79,West,281,0.0,6.0,92,0.00,,,0.00,Wunderground v.1.15,2013-04-20 05:40:00,
2013-04-20 01:45:00,56.2,54.2,29.81,West,281,0.0,6.0,93,0.00,,,0.00,Wunderground v.1.15,2013-04-20 05:45:00,
2013-04-20 01:55:00,55.9,53.9,29.81,West,281,0.0,6.0,93,0.00,,,0.00,Wunderground v.1.15,2013-04-20 05:55:00,
2013-04-20 02:00:00,55.8,54.1,29.81,West,281,0.0,6.0,94,0.00,,,0.00,Wunderground v.1.15,2013-04-20 06:00:00,
2013-04-20 02:05:00,55.6,53.6,29.81,West,281,0.0,6.0,93,0.00,,,0.00,Wunderground v.1.15,2013-04-20 06:05:00,
2013-04-20 02:15:00,55.3,53.3,29.81,WNW,284,1.0,6.0,93,0.00,,,0.00,Wunderground v.1.15,2013-04-20 06:15:00,
2013-04-20 02:20:00,55.1,53.1,29.81,WNW,284,1.0,1.0,93,0.00,,,0.00,Wunderground v.1.15,2013-04-20 06:20:00,
2013-04-20 02:25:00,54.9,52.9,29.81,WNW,285,1.0,6.0,93,0.00,,,0.00,Wunderground v.1.15,2013-04-20 06:25:00,
2013-04-20 02:30:00,54.7,52.7,29.79,NW,326,1.0,6.0,93,0.00,,,0.00,Wunderground v.1.15,2013-04-20 06:30:00,
2013-04-20 02:35:00,54.3,51.7,29.79,WNW,289,1.0,6.0,91,0.00,,,0.00,Wunderground v.1.15,2013-04-20 06:35:00,
2013-04-20 02:45:00,53.9,50.1,29.81,NW,317,1.0,6.0,87,0.00,,,0.00,Wunderground v.1.15,2013-04-20 06:45:00,
2013-04-20 02:50:00,53.7,50.2,29.81,NW,317,1.0,1.0,88,0.00,,,0.00,Wunderground v.1.15,2013-04-20 06:50:00,
2013-04-20 02:55:00,53.7,51.1,29.81,NNW,342,1.0,4.0,91,0.00,,,0.00,Wunderground v.1.15,2013-04-20 06:55:00,
2013-04-20 03:00:00,53.3,49.2,29.82,WNW,295,2.0,6.0,86,0.00,,,0.00,Wunderground v.1.15,2013-04-20 07:00:00,
2013-04-20 03:05:00,53.1,49.0,29.82,NW,320,2.0,6.0,86,0.00,,,0.00,Wunderground v.1.15,2013-04-20 07:05:00,
2013-04-20 03:15:00,52.7,48.0,29.84,West,262,2.0,6.0,84,0.00,,,0.00,Wunderground v.1.15,2013-04-20 07:15:00,
2013-04-20 03:20:00,52.5,47.5,29.84,NNW,329,2.0,2.0,83,0.00,,,0.00,Wunderground v.1.15,2013-04-20 07:20:00,
2013-04-20 03:25:00,52.3,47.9,29.84,NW,312,1.0,4.0,85,0.00,,,0.00,Wunderground v.1.15,2013-04-20 07:25:00,
2013-04-20 03:35:00,51.9,46.3,29.85,NNW,338,2.0,6.0,81,0.00,,,0.00,Wunderground v.1.15,2013-04-20 07:35:00,
2013-04-20 03:40:00,51.7,45.7,29.85,WNW,283,2.0,2.0,80,0.00,,,0.00,Wunderground v.1.15,2013-04-20 07:40:00,
2013-04-20 03:50:00,51.4,45.1,29.86,NW,308,2.0,6.0,79,0.00,,,0.00,Wunderground v.1.15,2013-04-20 07:50:00,
2013-04-20 03:55:00,51.3,44.0,29.86,NW,322,3.0,6.0,76,0.00,,,0.00,Wunderground v.1.15,2013-04-20 07:55:00,
2013-04-20 04:00:00,51.1,44.5,29.87,NW,321,3.0,3.0,78,0.00,,,0.00,Wunderground v.1.15,2013-04-20 08:00:00,
2013-04-20 04:05:00,50.9,43.9,29.87,WNW,300,2.0,6.0,77,0.00,,,0.00,Wunderground v.1.15,2013-04-20 08:05:00,
2013-04-20 04:10:00,50.8,43.8,29.87,WNW,297,2.0,6.0,77,0.00,,,0.00,Wunderground v.1.15,2013-04-20 08:10:00,
2013-04-20 04:20:00,50.5,42.9,29.86,NW,305,2.0,6.0,75,0.00,,,0.00,Wunderground v.1.15,2013-04-20 08:20:00,
2013-04-20 04:25:00,50.4,42.1,29.86,NNW,327,3.0,6.0,73,0.00,,,0.00,Wunderground v.1.15,2013-04-20 08:25:00,
2013-04-20 04:30:00,50.3,42.3,29.87,NW,309,3.0,3.0,74,0.00,,,0.00,Wunderground v.1.15,2013-04-20 08:30:00,
2013-04-20 04:35:00,50.1,41.8,29.87,WNW,297,2.0,6.0,73,0.00,,,0.00,Wunderground v.1.15,2013-04-20 08:35:00,
2013-04-20 04:45:00,49.8,40.8,29.87,NNW,334,2.0,6.0,71,0.00,,,0.00,Wunderground v.1.15,2013-04-20 08:45:00,
2013-04-20 04:50:00,49.7,40.3,29.87,WNW,296,2.0,6.0,70,0.00,,,0.00,Wunderground v.1.15,2013-04-20 08:50:00,
2013-04-20 04:55:00,49.5,40.8,29.87,NW,325,2.0,6.0,72,0.00,,,0.00,Wunderground v.1.15,2013-04-20 08:55:00,
2013-04-20 05:00:00,49.4,41.1,29.89,NNW,335,2.0,6.0,73,0.00,,,0.00,Wunderground v.1.15,2013-04-20 09:00:00,
2013-04-20 05:10:00,49.2,41.6,29.89,West,279,1.0,6.0,75,0.00,,,0.00,Wunderground v.1.15,2013-04-20 09:10:00,
2013-04-20 05:15:00,49.0,41.1,29.89,WNW,290,1.0,6.0,74,0.00,,,0.00,Wunderground v.1.15,2013-04-20 09:15:00,
2013-04-20 05:20:00,48.8,41.9,29.89,WNW,300,1.0,1.0,77,0.00,,,0.00,Wunderground v.1.15,2013-04-20 09:20:00,
2013-04-20 05:25:00,48.6,40.7,29.89,NW,321,1.0,2.0,74,0.00,,,0.00,Wunderground v.1.15,2013-04-20 09:25:00,
2013-04-20 05:30:00,48.5,40.2,29.90,NE,51,2.0,2.0,73,0.00,,,0.00,Wunderground v.1.15,2013-04-20 09:30:00,
2013-04-20 05:40:00,48.3,39.7,29.90,NW,308,2.0,2.0,72,0.00,,,0.00,Wunderground v.1.15,2013-04-20 09:40:00,
2013-04-20 05:45:00,48.2,39.9,29.90,NNW,337,1.0,6.0,73,0.00,,,0.00,Wunderground v.1.15,2013-04-20 09:45:00,
2013-04-20 05:50:00,48.2,39.2,29.90,NW,325,2.0,2.0,71,0.00,,,0.00,Wunderground v.1.15,2013-04-20 09:50:00,
2013-04-20 05:55:00,48.1,39.9,29.90,WNW,288,2.0,6.0,73,0.00,,,0.00,Wunderground v.1.15,2013-04-20 09:55:00,
2013-04-20 06:05:00,47.8,39.2,29.91,WNW,298,1.0,6.0,72,0.00,,,0.00,Wunderground v.1.15,2013-04-20 10:05:00,
2013-04-20 06:10:00,47.7,38.4,29.91,NNW,340,1.0,6.0,70,0.00,,,0.00,Wunderground v.1.15,2013-04-20 10:10:00,
2013-04-20 06:15:00,47.6,38.7,29.91,WNW,302,1.0,6.0,71,0.00,,,0.00,Wunderground v.1.15,2013-04-20 10:15:00,
2013-04-20 06:20:00,47.5,38.6,29.91,NW,312,1.0,6.0,71,0.00,,,0.00,Wunderground v.1.15,2013-04-20 10:20:00,
2013-04-20 06:25:00,47.4,38.5,29.91,WNW,297,1.0,6.0,71,0.00,,,0.00,Wunderground v.1.15,2013-04-20 10:25:00,
2013-04-20 06:35:00,47.2,38.3,29.93,WNW,297,1.0,6.0,71,0.00,,,0.00,Wunderground v.1.15,2013-04-20 10:35:00,
2013-04-20 06:40:00,47.2,39.0,29.93,WNW,297,0.0,6.0,73,0.00,,,0.00,Wunderground v.1.15,2013-04-20 10:40:00,
2013-04-20 06:45:00,47.1,38.2,29.94,WNW,297,0.0,6.0,71,0.00,,,0.00,Wunderground v.1.15,2013-04-20 10:45:00,
2013-04-20 06:50:00,46.9,39.0,29.94,WNW,290,1.0,1.0,74,0.00,,,0.00,Wunderground v.1.15,2013-04-20 10:50:00,
2013-04-20 06:56:00,46.8,39.6,29.94,NNW,334,1.0,6.0,76,0.00,,,0.00,Wunderground v.1.15,2013-04-20 10:56:00,
2013-04-20 07:06:00,46.6,39.4,29.95,WSW,255,1.0,6.0,76,0.00,,,0.00,Wunderground v.1.15,2013-04-20 11:06:00,
2013-04-20 07:11:00,46.5,38.0,29.95,WSW,255,1.0,1.0,72,0.00,,,0.00,Wunderground v.1.15,2013-04-20 11:11:00,
2013-04-20 07:16:00,46.5,38.3,29.96,WSW,255,0.0,6.0,73,0.00,,,0.00,Wunderground v.1.15,2013-04-20 11:16:00,
2013-04-20 07:26:00,46.4,39.9,29.96,WNW,282,1.0,6.0,78,0.00,,,0.00,Wunderground v.1.15,2013-04-20 11:26:00,
2013-04-20 07:31:00,46.3,38.8,29.98,WNW,297,1.0,1.0,75,0.00,,,0.00,Wunderground v.1.15,2013-04-20 11:31:00,
2013-04-20 07:36:00,46.3,39.1,29.98,NW,321,1.0,6.0,76,0.00,,,0.00,Wunderground v.1.15,2013-04-20 11:36:00,
2013-04-20 07:41:00,46.3,38.8,29.98,WNW,295,1.0,6.0,75,0.00,,,0.00,Wunderground v.1.15,2013-04-20 11:41:00,
2013-04-20 07:46:00,46.3,38.8,30.00,WNW,295,1.0,6.0,75,0.00,,,0.00,Wunderground v.1.15,2013-04-20 11:46:00,
2013-04-20 07:56:00,46.5,38.0,30.00,NW,310,2.0,6.0,72,0.00,,,0.00,Wunderground v.1.15,2013-04-20 11:56:00,
2013-04-20 08:01:00,46.5,37.6,30.01,NNW,338,2.0,2.0,71,0.00,,,0.00,Wunderground v.1.15,2013-04-20 12:01:00,
2013-04-20 08:06:00,46.6,37.0,30.01,NW,316,1.0,6.0,69,0.00,,,0.00,Wunderground v.1.15,2013-04-20 12:06:00,
2013-04-20 08:11:00,46.6,37.3,30.01,WNW,295,2.0,6.0,70,0.00,,,0.00,Wunderground v.1.15,2013-04-20 12:11:00,
2013-04-20 08:16:00,46.5,37.2,30.01,NW,313,2.0,6.0,70,0.00,,,0.00,Wunderground v.1.15,2013-04-20 12:16:00,
2013-04-20 08:26:00,46.4,37.9,30.01,WNW,298,1.0,6.0,72,0.00,,,0.00,Wunderground v.1.15,2013-04-20 12:26:00,
2013-04-20 08:31:00,46.3,37.4,30.02,NW,311,1.0,6.0,71,0.00,,,0.00,Wunderground v.1.15,2013-04-20 12:31:00,
2013-04-20 08:36:00,46.2,37.0,30.02,WNW,300,1.0,6.0,70,0.00,,,0.00,Wunderground v.1.15,2013-04-20 12:36:00,
2013-04-20 08:41:00,46.1,37.9,30.02,NW,307,1.0,1.0,73,0.00,,,0.00,Wunderground v.1.15,2013-04-20 12:41:00,
2013-04-20 08:46:00,46.1,39.0,30.02,NW,307,1.0,6.0,76,0.00,,,0.00,Wunderground v.1.15,2013-04-20 12:46:00,
2013-04-20 08:56:00,46.2,38.0,30.02,WNW,284,1.0,6.0,73,0.00,,,0.00,Wunderground v.1.15,2013-04-20 12:56:00,
2013-04-20 09:01:00,46.3,37.8,30.03,NW,304,2.0,2.0,72,0.00,,,0.00,Wunderground v.1.15,2013-04-20 13:01:00,
2013-04-20 09:06:00,46.5,38.0,30.03,North,8,2.0,6.0,72,0.00,,,0.00,Wunderground v.1.15,2013-04-20 13:06:00,
2013-04-20 09:15:00,46.9,39.0,30.03,North,1,1.0,6.0,74,0.00,,,0.00,Wunderground v.1.15,2013-04-20 13:15:00,
2013-04-20 09:21:00,47.4,38.5,30.03,NW,324,2.0,6.0,71,0.00,,,0.00,Wunderground v.1.15,2013-04-20 13:21:00,
2013-04-20 09:26:00,48.0,38.7,30.03,West,275,2.0,6.0,70,0.00,,,0.00,Wunderground v.1.15,2013-04-20 13:26:00,
2013-04-20 09:31:00,48.6,38.5,30.03,North,352,2.0,6.0,68,0.00,,,0.00,Wunderground v.1.15,2013-04-20 13:31:00,
2013-04-20 09:36:00,49.1,38.6,30.03,NW,317,2.0,6.0,67,0.00,,,0.00,Wunderground v.1.15,2013-04-20 13:36:00,
2013-04-20 09:46:00,49.8,36.5,30.03,NW,321,2.0,6.0,60,0.00,,,0.00,Wunderground v.1.15,2013-04-20 13:46:00,
2013-04-20 09:51:00,50.2,38.5,30.03,NNW,336,2.0,2.0,64,0.00,,,0.00,Wunderground v.1.15,2013-04-20 13:51:00,
2013-04-20 09:56:00,50.4,37.4,30.03,North,349,2.0,6.0,61,0.00,,,0.00,Wunderground v.1.15,2013-04-20 13:56:00,
2013-04-20 10:01:00,50.7,37.3,30.04,West,274,2.0,2.0,60,0.00,,,0.00,Wunderground v.1.15,2013-04-20 14:01:00,
2013-04-20 10:06:00,50.8,39.1,30.04,WNW,288,2.0,6.0,64,0.00,,,0.00,Wunderground v.1.15,2013-04-20 14:06:00,
2013-04-20 10:16:00,51.2,36.9,30.05,NNW,329,2.0,6.0,58,0.00,,,0.00,Wunderground v.1.15,2013-04-20 14:16:00,
2013-04-20 10:21:00,51.6,38.2,30.05,WNW,298,1.0,6.0,60,0.00,,,0.00,Wunderground v.1.15,2013-04-20 14:21:00,
2013-04-20 10:26:00,52.1,37.8,30.05,NW,309,1.0,6.0,58,0.00,,,0.00,Wunderground v.1.15,2013-04-20 14:26:00,
2013-04-20 10:31:00,52.5,37.7,30.05,WNW,289,1.0,1.0,57,0.00,,,0.00,Wunderground v.1.15,2013-04-20 14:31:00,
2013-04-20 10:41:00,53.3,37.1,30.05,North,0,2.0,6.0,54,0.00,,,0.00,Wunderground v.1.15,2013-04-20 14:41:00,
2013-04-20 10:46:00,53.6,35.9,30.06,North,3,2.0,6.0,51,0.00,,,0.00,Wunderground v.1.15,2013-04-20 14:46:00,
2013-04-20 10:51:00,53.6,36.9,30.06,NW,309,2.0,6.0,53,0.00,,,0.00,Wunderground v.1.15,2013-04-20 14:51:00,
2013-04-20 10:56:00,53.5,37.3,30.06,WNW,301,2.0,6.0,54,0.00,,,0.00,Wunderground v.1.15,2013-04-20 14:56:00,
2013-04-20 11:06:00,53.9,35.2,30.07,North,1,2.0,6.0,49,0.00,,,0.00,Wunderground v.1.15,2013-04-20 15:06:00,
2013-04-20 11:11:00,54.3,37.0,30.07,North,356,2.0,6.0,52,0.00,,,0.00,Wunderground v.1.15,2013-04-20 15:11:00,
2013-04-20 11:16:00,54.7,34.3,30.07,NW,305,3.0,6.0,46,0.00,,,0.00,Wunderground v.1.15,2013-04-20 15:16:00,
2013-04-20 11:21:00,55.2,35.8,30.07,NW,311,2.0,6.0,48,0.00,,,0.00,Wunderground v.1.15,2013-04-20 15:21:00,
2013-04-20 11:26:00,55.6,39.7,30.07,WNW,292,2.0,6.0,55,0.00,,,0.00,Wunderground v.1.15,2013-04-20 15:26:00,
2013-04-20 11:36:00,56.7,37.2,30.07,NW,316,2.0,6.0,48,0.00,,,0.00,Wunderground v.1.15,2013-04-20 15:36:00,
2013-04-20 11:41:00,56.8,35.1,30.07,NW,322,2.0,2.0,44,0.00,,,0.00,Wunderground v.1.15,2013-04-20 15:41:00,
2013-04-20 11:46:00,57.0,38.0,30.07,NW,306,2.0,6.0,49,0.00,,,0.00,Wunderground v.1.15,2013-04-20 15:46:00,
2013-04-20 11:51:00,57.2,36.6,30.07,NW,314,2.0,6.0,46,0.00,,,0.00,Wunderground v.1.15,2013-04-20 15:51:00,
2013-04-20 11:56:00,57.3,35.6,30.07,NNW,337,2.0,6.0,44,0.00,,,0.00,Wunderground v.1.15,2013-04-20 15:56:00,
2013-04-20 12:06:00,56.9,35.2,30.07,NW,308,2.0,6.0,44,0.00,,,0.00,Wunderground v.1.15,2013-04-20 16:06:00,
2013-04-20 12:15:00,57.1,37.0,30.06,North,359,2.0,4.0,47,0.00,,,0.00,Wunderground v.1.15,2013-04-20 16:15:00,
2013-04-20 12:21:00,57.5,36.3,30.06,NW,305,2.0,4.0,45,0.00,,,0.00,Wunderground v.1.15,2013-04-20 16:21:00,
2013-04-20 12:26:00,58.0,35.0,30.06,NNW,345,2.0,4.0,42,0.00,,,0.00,Wunderground v.1.15,2013-04-20 16:26:00,
2013-04-20 12:31:00,58.3,37.6,30.06,WNW,295,2.0,4.0,46,0.00,,,0.00,Wunderground v.1.15,2013-04-20 16:31:00,
2013-04-20 12:36:00,58.3,34.7,30.06,West,281,2.0,4.0,41,0.00,,,0.00,Wunderground v.1.15,2013-04-20 16:36:00,
2013-04-20 12:46:00,59.0,37.7,30.05,WNW,288,1.0,4.0,45,0.00,,,0.00,Wunderground v.1.15,2013-04-20 16:46:00,
2013-04-20 12:51:00,59.6,38.8,30.05,WNW,284,1.0,4.0,46,0.00,,,0.00,Wunderground v.1.15,2013-04-20 16:51:00,
2013-04-20 12:56:00,59.9,34.9,30.05,NNE,30,1.0,4.0,39,0.00,,,0.00,Wunderground v.1.15,2013-04-20 16:56:00,
2013-04-20 13:01:00,60.4,38.4,30.05,North,1,2.0,2.0,44,0.00,,,0.00,Wunderground v.1.15,2013-04-20 17:01:00,
2013-04-20 13:06:00,60.4,40.1,30.05,WNW,283,1.0,4.0,47,0.00,,,0.00,Wunderground v.1.15,2013-04-20 17:06:00,
2013-04-20 13:16:00,60.3,35.9,30.05,NW,310,2.0,4.0,40,0.00,,,0.00,Wunderground v.1.15,2013-04-20 17:16:00,
2013-04-20 13:21:00,60.4,37.2,30.05,NNW,341,2.0,4.0,42,0.00,,,0.00,Wunderground v.1.15,2013-04-20 17:21:00,
2013-04-20 13:26:00,60.7,37.5,30.05,North,359,2.0,4.0,42,0.00,,,0.00,Wunderground v.1.15,2013-04-20 17:26:00,
2013-04-20 13:31:00,60.9,37.6,30.05,WNW,299,2.0,4.0,42,0.00,,,0.00,Wunderground v.1.15,2013-04-20 17:31:00,
2013-04-20 13:36:00,61.3,36.1,30.05,North,359,2.0,4.0,39,0.00,,,0.00,Wunderground v.1.15,2013-04-20 17:36:00,
2013-04-20 13:46:00,61.1,36.6,30.05,WNW,282,3.0,4.0,40,0.00,,,0.00,Wunderground v.1.15,2013-04-20 17:46:00,
2013-04-20 13:51:00,61.2,39.1,30.05,NNE,25,2.0,4.0,44,0.00,,,0.00,Wunderground v.1.15,2013-04-20 17:51:00,
2013-04-20 13:56:00,61.5,39.4,30.05,SW,231,2.0,4.0,44,0.00,,,0.00,Wunderground v.1.15,2013-04-20 17:56:00,
2013-04-20 14:05:00,62.0,39.2,30.05,West,278,2.0,4.0,43,0.00,,,0.00,Wunderground v.1.15,2013-04-20 18:05:00,
2013-04-20 14:11:00,61.8,35.2,30.05,NW,319,2.0,4.0,37,0.00,,,0.00,Wunderground v.1.15,2013-04-20 18:11:00,
2013-04-20 14:16:00,61.8,35.9,30.05,West,268,2.0,4.0,38,0.00,,,0.00,Wunderground v.1.15,2013-04-20 18:16:00,
2013-04-20 14:21:00,62.0,34.7,30.05,WNW,284,2.0,4.0,36,0.00,,,0.00,Wunderground v.1.15,2013-04-20 18:21:00,
2013-04-20 14:26:00,62.3,36.4,30.05,SSW,197,2.0,4.0,38,0.00,,,0.00,Wunderground v.1.15,2013-04-20 18:26:00,
2013-04-20 14:36:00,62.1,36.2,30.05,WSW,257,2.0,4.0,38,0.00,,,0.00,Wunderground v.1.15,2013-04-20 18:36:00,
2013-04-20 14:41:00,62.2,35.6,30.05,NW,319,2.0,2.0,37,0.00,,,0.00,Wunderground v.1.15,2013-04-20 18:41:00,
2013-04-20 14:46:00,62.5,36.5,30.05,ENE,61,2.0,4.0,38,0.00,,,0.00,Wunderground v.1.15,2013-04-20 18:46:00,
2013-04-20 14:51:00,62.8,36.8,30.05,North,359,1.0,1.0,38,0.00,,,0.00,Wunderground v.1.15,2013-04-20 18:51:00,
2013-04-20 14:56:00,62.9,35.5,30.05,West,271,1.0,4.0,36,0.00,,,0.00,Wunderground v.1.15,2013-04-20 18:56:00,
2013-04-20 15:06:00,62.5,37.2,30.05,WNW,289,1.0,4.0,39,0.00,,,0.00,Wunderground v.1.15,2013-04-20 19:06:00,
2013-04-20 15:11:00,62.2,34.9,30.05,WNW,289,1.0,4.0,36,0.00,,,0.00,Wunderground v.1.15,2013-04-20 19:11:00,
2013-04-20 15:16:00,62.1,33.4,30.05,SSW,213,2.0,4.0,34,0.00,,,0.00,Wunderground v.1.15,2013-04-20 19:16:00,
2013-04-20 15:21:00,62.0,35.4,30.05,SSW,203,2.0,4.0,37,0.00,,,0.00,Wunderground v.1.15,2013-04-20 19:21:00,
2013-04-20 15:26:00,62.4,35.8,30.05,NW,313,2.0,4.0,37,0.00,,,0.00,Wunderground v.1.15,2013-04-20 19:26:00,
2013-04-20 15:36:00,62.8,35.4,30.05,NW,316,2.0,4.0,36,0.00,,,0.00,Wunderground v.1.15,2013-04-20 19:36:00,
2013-04-20 15:41:00,62.6,33.8,30.05,NE,41,2.0,2.0,34,0.00,,,0.00,Wunderground v.1.15,2013-04-20 19:41:00,
2013-04-20 15:46:00,62.7,36.7,30.04,ENE,60,1.0,4.0,38,0.00,,,0.00,Wunderground v.1.15,2013-04-20 19:46:00,
2013-04-20 15:51:00,63.1,37.7,30.04,ESE,102,1.0,4.0,39,0.00,,,0.00,Wunderground v.1.15,2013-04-20 19:51:00,
2013-04-20 16:01:00,62.9,34.1,30.04,SW,231,2.0,4.0,34,0.00,,,0.00,Wunderground v.1.15,2013-04-20 20:01:00,
2013-04-20 16:06:00,62.2,36.9,30.04,NW,310,2.0,4.0,39,0.00,,,0.00,Wunderground v.1.15,2013-04-20 20:06:00,
2013-04-20 16:11:00,62.1,34.8,30.04,NW,310,1.0,4.0,36,0.00,,,0.00,Wunderground v.1.15,2013-04-20 20:11:00,
2013-04-20 16:16:00,61.8,34.5,30.04,WNW,290,1.0,4.0,36,0.00,,,0.00,Wunderground v.1.15,2013-04-20 20:16:00,
2013-04-20 16:26:00,61.7,33.7,30.04,NE,37,1.0,4.0,35,0.00,,,0.00,Wunderground v.1.15,2013-04-20 20:26:00,
2013-04-20 16:31:00,61.8,36.6,30.04,West,275,1.0,4.0,39,0.00,,,0.00,Wunderground v.1.15,2013-04-20 20:31:00,
2013-04-20 16:36:00,61.8,35.2,30.04,NNW,344,1.0,4.0,37,0.00,,,0.00,Wunderground v.1.15,2013-04-20 20:36:00,
2013-04-20 16:41:00,61.8,35.9,30.04,West,271,1.0,4.0,38,0.00,,,0.00,Wunderground v.1.15,2013-04-20 20:41:00,
2013-04-20 16:51:00,61.5,34.3,30.04,South,184,1.0,4.0,36,0.00,,,0.00,Wunderground v.1.15,2013-04-20 20:51:00,
2013-04-20 16:56:00,61.6,35.7,30.04,WNW,286,1.0,4.0,38,0.00,,,0.00,Wunderground v.1.15,2013-04-20 20:56:00,
2013-04-20 17:01:00,61.8,35.2,30.05,NW,323,1.0,4.0,37,0.00,,,0.00,Wunderground v.1.15,2013-04-20 21:01:00,
2013-04-20 17:06:00,61.8,36.6,30.05,North,356,1.0,4.0,39,0.00,,,0.00,Wunderground v.1.15,2013-04-20 21:06:00,
2013-04-20 17:11:00,61.6,36.4,30.05,WNW,293,1.0,4.0,39,0.00,,,0.00,Wunderground v.1.15,2013-04-20 21:11:00,
2013-04-20 17:21:00,62.0,33.3,30.05,WSW,249,1.0,1.0,34,0.00,,,0.00,Wunderground v.1.15,2013-04-20 21:21:00,
2013-04-20 17:26:00,62.3,35.0,30.05,WNW,303,1.0,2.0,36,0.00,,,0.00,Wunderground v.1.15,2013-04-20 21:26:00,
2013-04-20 17:31:00,62.4,35.8,30.05,NNE,30,1.0,4.0,37,0.00,,,0.00,Wunderground v.1.15,2013-04-20 21:31:00,
2013-04-20 17:36:00,62.2,34.9,30.05,NW,307,1.0,4.0,36,0.00,,,0.00,Wunderground v.1.15,2013-04-20 21:36:00,
2013-04-20 17:41:00,61.8,35.2,30.05,NW,304,1.0,4.0,37,0.00,,,0.00,Wunderground v.1.15,2013-04-20 21:41:00,
2013-04-20 17:51:00,61.6,32.2,30.06,NW,323,1.0,4.0,33,0.00,,,0.00,Wunderground v.1.15,2013-04-20 21:51:00,
2013-04-20 17:56:00,61.5,35.6,30.06,NW,322,1.0,4.0,38,0.00,,,0.00,Wunderground v.1.15,2013-04-20 21:56:00,
2013-04-20 18:01:00,61.3,38.0,30.06,NNW,333,1.0,4.0,42,0.00,,,0.00,Wunderground v.1.15,2013-04-20 22:01:00,
2013-04-20 18:11:00,60.8,36.3,30.06,West,259,1.0,4.0,40,0.00,,,0.00,Wunderground v.1.15,2013-04-20 22:11:00,
2013-04-20 18:16:00,60.7,38.6,30.08,NW,308,1.0,4.0,44,0.00,,,0.00,Wunderground v.1.15,2013-04-20 22:16:00,
2013-04-20 18:21:00,60.5,36.0,30.08,WNW,300,1.0,4.0,40,0.00,,,0.00,Wunderground v.1.15,2013-04-20 22:21:00,
2013-04-20 18:26:00,60.5,37.9,30.08,WNW,300,1.0,4.0,43,0.00,,,0.00,Wunderground v.1.15,2013-04-20 22:26:00,
2013-04-20 18:31:00,60.3,36.5,30.08,WNW,300,0.0,4.0,41,0.00,,,0.00,Wunderground v.1.15,2013-04-20 22:31:00,
2013-04-20 18:41:00,59.6,35.9,30.08,North,3,1.0,4.0,41,0.00,,,0.00,Wunderground v.1.15,2013-04-20 22:41:00,
2013-04-20 18:46:00,59.3,35.6,30.08,NE,40,1.0,4.0,41,0.00,,,0.00,Wunderground v.1.15,2013-04-20 22:46:00,
2013-04-20 18:51:00,59.1,38.9,30.08,NE,37,0.0,4.0,47,0.00,,,0.00,Wunderground v.1.15,2013-04-20 22:51:00,
2013-04-20 18:56:00,58.8,36.9,30.08,NE,37,0.0,4.0,44,0.00,,,0.00,Wunderground v.1.15,2013-04-20 22:56:00,
2013-04-20 19:01:00,58.6,37.9,30.09,NE,37,0.0,4.0,46,0.00,,,0.00,Wunderground v.1.15,2013-04-20 23:01:00,
2013-04-20 19:11:00,58.1,40.1,30.09,NE,37,0.0,4.0,51,0.00,,,0.00,Wunderground v.1.15,2013-04-20 23:11:00,
2013-04-20 19:16:00,57.9,41.3,30.09,NE,37,0.0,4.0,54,0.00,,,0.00,Wunderground v.1.15,2013-04-20 23:16:00,
2013-04-20 19:21:00,57.5,40.0,30.09,NE,37,0.0,4.0,52,0.00,,,0.00,Wunderground v.1.15,2013-04-20 23:21:00,
2013-04-20 19:26:00,57.2,41.2,30.09,NE,37,0.0,4.0,55,0.00,,,0.00,Wunderground v.1.15,2013-04-20 23:26:00,
2013-04-20 19:31:00,56.8,40.8,30.09,NE,37,0.0,4.0,55,0.00,,,0.00,Wunderground v.1.15,2013-04-20 23:31:00,
2013-04-20 19:41:00,56.1,42.4,30.09,NE,37,0.0,4.0,60,0.00,,,0.00,Wunderground v.1.15,2013-04-20 23:41:00,
2013-04-20 19:46:00,55.7,42.0,30.09,NE,37,0.0,4.0,60,0.00,,,0.00,Wunderground v.1.15,2013-04-20 23:46:00,
2013-04-20 19:51:00,55.4,42.6,30.09,NE,37,0.0,4.0,62,0.00,,,0.00,Wunderground v.1.15,2013-04-20 23:51:00,
2013-04-20 20:00:00,54.5,42.6,30.11,NE,37,0.0,4.0,64,0.00,,,0.00,Wunderground v.1.15,2013-04-21 00:00:00,
2013-04-20 20:06:00,53.9,42.0,30.11,NE,37,0.0,4.0,64,0.00,,,0.00,Wunderground v.1.15,2013-04-21 00:06:00,
2013-04-20 20:11:00,53.4,40.7,30.11,NE,37,0.0,4.0,62,0.00,,,0.00,Wunderground v.1.15,2013-04-21 00:11:00,
2013-04-20 20:16:00,53.0,41.1,30.13,NE,37,0.0,4.0,64,0.00,,,0.00,Wunderground v.1.15,2013-04-21 00:16:00,
2013-04-20 20:21:00,52.6,42.3,30.13,NE,37,0.0,4.0,68,0.00,,,0.00,Wunderground v.1.15,2013-04-21 00:21:00,
2013-04-20 20:31:00,51.8,42.7,30.14,NE,37,0.0,4.0,71,0.00,,,0.00,Wunderground v.1.15,2013-04-21 00:31:00,
2013-04-20 20:36:00,51.4,43.0,30.14,NE,37,0.0,4.0,73,0.00,,,0.00,Wunderground v.1.15,2013-04-21 00:36:00,
2013-04-20 20:41:00,51.0,43.0,30.14,NE,37,0.0,4.0,74,0.00,,,0.00,Wunderground v.1.15,2013-04-21 00:41:00,
2013-04-20 20:46:00,50.7,43.1,30.15,NE,37,0.0,4.0,75,0.00,,,0.00,Wunderground v.1.15,2013-04-21 00:46:00,
2013-04-20 20:51:00,50.2,42.9,30.15,NE,37,0.0,4.0,76,0.00,,,0.00,Wunderground v.1.15,2013-04-21 00:51:00,
2013-04-20 21:01:00,49.3,42.7,30.16,NE,37,0.0,4.0,78,0.00,,,0.00,Wunderground v.1.15,2013-04-21 01:01:00,
2013-04-20 21:06:00,48.9,42.3,30.16,NE,37,0.0,4.0,78,0.00,,,0.00,Wunderground v.1.15,2013-04-21 01:06:00,
2013-04-20 21:11:00,48.7,42.5,30.16,NE,37,0.0,4.0,79,0.00,,,0.00,Wunderground v.1.15,2013-04-21 01:11:00,
2013-04-20 21:16:00,48.4,42.8,30.17,NE,37,0.0,4.0,81,0.00,,,0.00,Wunderground v.1.15,2013-04-21 01:16:00,
2013-04-20 21:21:00,48.1,42.5,30.17,NE,37,0.0,4.0,81,0.00,,,0.00,Wunderground v.1.15,2013-04-21 01:21:00,
2013-04-20 21:31:00,47.6,42.4,30.18,NE,37,0.0,4.0,82,0.00,,,0.00,Wunderground v.1.15,2013-04-21 01:31:00,
2013-04-20 21:36:00,47.3,42.4,30.18,NE,37,0.0,4.0,83,0.00,,,0.00,Wunderground v.1.15,2013-04-21 01:36:00,
2013-04-20 21:41:00,47.1,42.5,30.18,NE,37,0.0,4.0,84,0.00,,,0.00,Wunderground v.1.15,2013-04-21 01:41:00,
2013-04-20 21:46:00,46.8,42.2,30.19,NE,37,0.0,4.0,84,0.00,,,0.00,Wunderground v.1.15,2013-04-21 01:46:00,
2013-04-20 21:51:00,46.5,41.9,30.19,NE,37,0.0,4.0,84,0.00,,,0.00,Wunderground v.1.15,2013-04-21 01:51:00,
2013-04-20 22:01:00,46.0,42.0,30.19,NE,37,0.0,4.0,86,0.00,,,0.00,Wunderground v.1.15,2013-04-21 02:01:00,
2013-04-20 22:06:00,45.8,41.9,30.19,NE,37,0.0,4.0,86,0.00,,,0.00,Wunderground v.1.15,2013-04-21 02:06:00,
2013-04-20 22:11:00,45.7,42.1,30.19,NE,37,0.0,4.0,87,0.00,,,0.00,Wunderground v.1.15,2013-04-21 02:11:00,
2013-04-20 22:16:00,45.5,42.2,30.19,NE,37,0.0,4.0,88,0.00,,,0.00,Wunderground v.1.15,2013-04-21 02:16:00,
2013-04-20 22:26:00,45.1,41.8,30.19,NE,37,0.0,4.0,88,0.00,,,0.00,Wunderground v.1.15,2013-04-21 02:26:00,
2013-04-20 22:31:00,44.8,41.5,30.19,NE,37,0.0,4.0,88,0.00,,,0.00,Wunderground v.1.15,2013-04-21 02:31:00,
2013-04-20 22:36:00,44.6,41.6,30.19,NE,37,0.0,4.0,89,0.00,,,0.00,Wunderground v.1.15,2013-04-21 02:36:00,
2013-04-20 22:41:00,44.4,41.4,30.19,NE,37,0.0,4.0,89,0.00,,,0.00,Wunderground v.1.15,2013-04-21 02:41:00,
2013-04-20 22:51:00,44.1,41.4,30.20,NE,37,0.0,4.0,90,0.00,,,0.00,Wunderground v.1.15,2013-04-21 02:51:00,
2013-04-20 22:56:00,43.9,41.2,30.20,NE,37,0.0,4.0,90,0.00,,,0.00,Wunderground v.1.15,2013-04-21 02:56:00,
2013-04-20 23:01:00,43.8,41.1,30.21,NE,37,0.0,4.0,90,0.00,,,0.00,Wunderground v.1.15,2013-04-21 03:01:00,
2013-04-20 23:06:00,43.6,40.9,30.21,NE,37,0.0,4.0,90,0.00,,,0.00,Wunderground v.1.15,2013-04-21 03:06:00,
2013-04-20 23:11:00,43.4,40.7,30.21,NE,37,0.0,4.0,90,0.00,,,0.00,Wunderground v.1.15,2013-04-21 03:11:00,
2013-04-20 23:21:00,43.2,40.5,30.20,NE,37,0.0,4.0,90,0.00,,,0.00,Wunderground v.1.15,2013-04-21 03:21:00,
2013-04-20 23:26:00,43.1,40.4,30.20,NE,37,0.0,4.0,90,0.00,,,0.00,Wunderground v.1.15,2013-04-21 03:26:00,
2013-04-20 23:31:00,42.9,40.2,30.21,NE,37,0.0,4.0,90,0.00,,,0.00,Wunderground v.1.15,2013-04-21 03:31:00,
2013-04-20 23:36:00,42.7,40.3,30.21,NE,37,0.0,4.0,91,0.00,,,0.00,Wunderground v.1.15,2013-04-21 03:36:00,
2013-04-20 23:41:00,42.6,40.2,30.21,NE,37,0.0,4.0,91,0.00,,,0.00,Wunderground v.1.15,2013-04-21 03:41:00,
2013-04-20 23:51:00,42.2,39.8,30.21,NE,37,0.0,4.0,91,0.00,,,0.00,Wunderground v.1.15,2013-04-21 03:51:00,
2013-04-20 23:56:00,42.1,39.9,30.21,NE,37,0.0,4.0,92,0.00,,,0.00,Wunderground v.1.15,2013-04-21 03:56:00,